Powrót do katalogu

STARLINK-11391

AktywnyŁącznośćVLEO
NORAD 62889·PAYLOAD·🇺🇸 United States

Wystrzelony Feb 4, 2025 z Cape Canaveral Space Force Station

Loading…

Następne Przeloty (najbliższe 24 godziny)

TLE

ŚwieżeSource: CelesTrak SupGP

Epoka: Sep 14, 2026, 14:49 UTC

1 62889C 25024L   26257.61784722  .00070227  00000+0  54574-3 0  2577
2 62889  43.0000 122.4807 0001616 249.8566  46.4217 15.70790887    17

Śledź STARLINK-11391 w czasie rzeczywistym z AllMySat

Download on the App Store